Voltar ao catálogo

DELTA 1 DEB

AtivoLEO
NORAD 7074·DEBRIS·🇺🇸 United States

Lançado Nov 6, 1973 de Vandenberg Space Force Base

Loading…

Próximas Passagens (próximas 24 horas)

TLE

AtualizadoSource: Space-Track

Época: Sep 14, 2026, 13:53 UTC

1 07074U 73086BS  26257.57866253 -.00000023  00000-0  12270-3 0  9997
2 07074 101.9462  14.0154 0176055 294.3206 132.6009 12.72210718453631

Acompanhe DELTA 1 DEB em tempo real com AllMySat

Download on the App Store